Gaslog Saratoga — ZCEN3 — position and weather

sailwx.info

Track history (hours):
 
Tides and Currents Weather Stations Pressure Air Temp Water Temp Dewpoint Dewpoint Depression Visibility Wind Speed Wind Dir Waves Ship Positions

Gaslog Saratoga

Last reported at 2017-Dec-09 21:22 UTC. Time now 2017-Dec-14 04:19 UTC.
Position N 47°53' W 005°46'.

Length 285 m; draft 7 m.

Type: Ship (hazmat cat C). MMSI: 310696000.

Date/timePositionNaut miles runAvg speedWind from/ knotsBaromVisibWave heightAir tempDewpointWater temp
2017-Dec-09 21:22N 47°53' W 005°46'411.6
2017-Dec-09 21:00N 47°54' W 005°40'611.3
2017-Dec-09 20:28N 47°57' W 005°32'611.7
2017-Dec-09 19:58N 48°01' W 005°26'511.3
2017-Dec-09 19:29N 48°05' W 005°19'510.9
2017-Dec-09 19:01N 48°07' W 005°13'510.8
2017-Dec-09 18:31N 48°10' W 005°06'611.0
2017-Dec-09 18:00N 48°14' W 004°60'611.6
2017-Dec-09 17:31N 48°16' W 004°51'611.7
2017-Dec-09 17:00N 48°18' W 004°43'510.0
2017-Dec-09 16:31N 48°20' W 004°36'5 9.9
2017-Dec-09 16:00N 48°22' W 004°29'2 3.4
2017-Dec-09 15:30N 48°23' W 004°28'0 0.6
2017-Dec-09 15:00N 48°23' W 004°28'0 0.0
2017-Dec-09 14:30N 48°23' W 004°28'0 0.0
2017-Dec-09 14:00N 48°23' W 004°28'  
2017-Dec-02 07:04N 48°23' W 004°28'0 0.1
2017-Dec-02 06:58N 48°23' W 004°28'0 0.2
2017-Dec-02 06:28N 48°23' W 004°28'0 0.2
2017-Dec-02 06:00N 48°23' W 004°28'1 1.3
2017-Dec-02 05:30N 48°22' W 004°28'1 3.0
2017-Dec-02 05:00N 48°21' W 004°29'0 0.7
2017-Dec-02 04:30N 48°21' W 004°29'0 0.1
2017-Dec-02 04:00N 48°21' W 004°29'0 0.0
2017-Dec-02 03:30N 48°21' W 004°29'0 0.1
2017-Dec-02 03:00N 48°21' W 004°29'0 0.0
2017-Dec-02 02:30N 48°21' W 004°29'0 0.1
2017-Dec-02 02:00N 48°21' W 004°29'0 0.0
2017-Dec-02 01:30N 48°21' W 004°29'0 0.0
2017-Dec-02 01:00N 48°21' W 004°29'0 0.0
2017-Dec-02 00:30N 48°21' W 004°29'0 0.0
2017-Dec-02 00:00N 48°21' W 004°29'0 0.0
2017-Dec-01 23:30N 48°21' W 004°29'0 0.0
2017-Dec-01 23:00N 48°21' W 004°29'0 0.0
2017-Dec-01 22:30N 48°21' W 004°29'0 0.0
2017-Dec-01 22:00N 48°21' W 004°29'0 0.0
2017-Dec-01 21:30N 48°21' W 004°29'0 0.0
2017-Dec-01 21:00N 48°21' W 004°29'0 0.1
2017-Dec-01 20:30N 48°21' W 004°29'0 0.0
2017-Dec-01 20:00N 48°21' W 004°29'0 0.0
2017-Dec-01 19:30N 48°21' W 004°29'0 0.1
2017-Dec-01 19:00N 48°21' W 004°29'0 0.0
2017-Dec-01 18:30N 48°21' W 004°29'0 0.0
2017-Dec-01 18:00N 48°21' W 004°29'0 0.0
2017-Dec-01 17:30N 48°21' W 004°29'0 0.8
2017-Dec-01 17:00N 48°21' W 004°30'3 6.8
2017-Dec-01 16:30N 48°20' W 004°35'5 9.2
2017-Dec-01 16:00N 48°18' W 004°41'3 5.5
2017-Dec-01 15:30N 48°18' W 004°45'4 7.5
2017-Dec-01 15:00N 48°16' W 004°50'3 6.8
2017-Dec-01 14:30N 48°15' W 004°55'3 5.8
2017-Dec-01 14:00N 48°13' W 004°59'4 8.0
2017-Dec-01 13:30N 48°12' W 005°04'4 8.1
2017-Dec-01 13:00N 48°10' W 005°09'4 8.1
2017-Dec-01 12:30N 48°07' W 005°14'4 8.1
2017-Dec-01 12:00N 48°05' W 005°19'4 8.1
2017-Dec-01 11:30N 48°03' W 005°24'4 7.8
2017-Dec-01 11:00N 48°00' W 005°29'4 7.8
2017-Dec-01 10:29N 47°58' W 005°34'4 7.7
2017-Dec-01 10:00N 47°57' W 005°39'4 7.6
2017-Dec-01 09:30N 47°55' W 005°44'4 8.3
2017-Dec-01 08:57N 47°54' W 005°50'  
Track history (hours):
 
Tides and Currents Weather Stations Pressure Air Temp Water Temp Dewpoint Dewpoint Depression Visibility Wind Speed Wind Dir Waves Ship Positions

Gaslog Saratoga

Last reported at 2017-Dec-09 21:22 UTC. Time now 2017-Dec-14 04:19 UTC.
Position N 47°53' W 005°46'.

Length 285 m; draft 7 m.

Type: Ship (hazmat cat C). MMSI: 310696000.

Date/timePositionNaut miles runAvg speedWind from/ knotsBaromVisibWave heightAir tempDewpointWater temp
2017-Dec-09 21:22N 47°53' W 005°46'411.6
2017-Dec-09 21:00N 47°54' W 005°40'611.3
2017-Dec-09 20:28N 47°57' W 005°32'611.7
2017-Dec-09 19:58N 48°01' W 005°26'511.3
2017-Dec-09 19:29N 48°05' W 005°19'510.9
2017-Dec-09 19:01N 48°07' W 005°13'510.8
2017-Dec-09 18:31N 48°10' W 005°06'611.0
2017-Dec-09 18:00N 48°14' W 004°60'611.6
2017-Dec-09 17:31N 48°16' W 004°51'611.7
2017-Dec-09 17:00N 48°18' W 004°43'510.0
2017-Dec-09 16:31N 48°20' W 004°36'5 9.9
2017-Dec-09 16:00N 48°22' W 004°29'2 3.4
2017-Dec-09 15:30N 48°23' W 004°28'0 0.6
2017-Dec-09 15:00N 48°23' W 004°28'0 0.0
2017-Dec-09 14:30N 48°23' W 004°28'0 0.0
2017-Dec-09 14:00N 48°23' W 004°28'  
2017-Dec-02 07:04N 48°23' W 004°28'0 0.1
2017-Dec-02 06:58N 48°23' W 004°28'0 0.2
2017-Dec-02 06:28N 48°23' W 004°28'0 0.2
2017-Dec-02 06:00N 48°23' W 004°28'1 1.3
2017-Dec-02 05:30N 48°22' W 004°28'1 3.0
2017-Dec-02 05:00N 48°21' W 004°29'0 0.7
2017-Dec-02 04:30N 48°21' W 004°29'0 0.1
2017-Dec-02 04:00N 48°21' W 004°29'0 0.0
2017-Dec-02 03:30N 48°21' W 004°29'0 0.1
2017-Dec-02 03:00N 48°21' W 004°29'0 0.0
2017-Dec-02 02:30N 48°21' W 004°29'0 0.1
2017-Dec-02 02:00N 48°21' W 004°29'0 0.0
2017-Dec-02 01:30N 48°21' W 004°29'0 0.0
2017-Dec-02 01:00N 48°21' W 004°29'0 0.0
2017-Dec-02 00:30N 48°21' W 004°29'0 0.0
2017-Dec-02 00:00N 48°21' W 004°29'0 0.0
2017-Dec-01 23:30N 48°21' W 004°29'0 0.0
2017-Dec-01 23:00N 48°21' W 004°29'0 0.0
2017-Dec-01 22:30N 48°21' W 004°29'0 0.0
2017-Dec-01 22:00N 48°21' W 004°29'0 0.0
2017-Dec-01 21:30N 48°21' W 004°29'0 0.0
2017-Dec-01 21:00N 48°21' W 004°29'0 0.1
2017-Dec-01 20:30N 48°21' W 004°29'0 0.0
2017-Dec-01 20:00N 48°21' W 004°29'0 0.0
2017-Dec-01 19:30N 48°21' W 004°29'0 0.1
2017-Dec-01 19:00N 48°21' W 004°29'0 0.0
2017-Dec-01 18:30N 48°21' W 004°29'0 0.0
2017-Dec-01 18:00N 48°21' W 004°29'0 0.0
2017-Dec-01 17:30N 48°21' W 004°29'0 0.8
2017-Dec-01 17:00N 48°21' W 004°30'3 6.8
2017-Dec-01 16:30N 48°20' W 004°35'5 9.2
2017-Dec-01 16:00N 48°18' W 004°41'3 5.5
2017-Dec-01 15:30N 48°18' W 004°45'4 7.5
2017-Dec-01 15:00N 48°16' W 004°50'3 6.8
2017-Dec-01 14:30N 48°15' W 004°55'3 5.8
2017-Dec-01 14:00N 48°13' W 004°59'4 8.0
2017-Dec-01 13:30N 48°12' W 005°04'4 8.1
2017-Dec-01 13:00N 48°10' W 005°09'4 8.1
2017-Dec-01 12:30N 48°07' W 005°14'4 8.1
2017-Dec-01 12:00N 48°05' W 005°19'4 8.1
2017-Dec-01 11:30N 48°03' W 005°24'4 7.8
2017-Dec-01 11:00N 48°00' W 005°29'4 7.8
2017-Dec-01 10:29N 47°58' W 005°34'4 7.7
2017-Dec-01 10:00N 47°57' W 005°39'4 7.6
2017-Dec-01 09:30N 47°55' W 005°44'4 8.3
2017-Dec-01 08:57N 47°54' W 005°50'  

Dump ship's entire track history